This is the latest recevied weather packets stored in our database for station/object R6DH-11. If no packets are shown the sender has not sent any weather packets the latest 10 day(s).
| Time | Temp. | Humidity | Pressure | Rain* | Wind** | Luminosity | Snow |
|---|---|---|---|---|---|---|---|
| 1777923090 | 8.89° C | 77% | 1012.1 hPa | - | - | - | - |
| 1777922189 | 8.89° C | 77% | 1012.2 hPa | - | - | - | - |
| 1777921289 | 8.89° C | 79% | 1012.3 hPa | - | - | - | - |
| 1777920389 | 8.89° C | 79% | 1012.4 hPa | - | - | - | - |
| 1777919489 | 8.89° C | 79% | 1012.5 hPa | - | - | - | - |
| 1777918589 | 8.89° C | 79% | 1012.5 hPa | - | - | - | - |
| 1777917689 | 8.89° C | 80% | 1012.6 hPa | - | - | - | - |
| 1777915884 | 8.33° C | 80% | 1012.4 hPa | - | - | - | - |
| 1777914984 | 8.89° C | 80% | 1012.8 hPa | - | - | - | - |
| 1777914093 | 8.89° C | 80% | 1012.7 hPa | - | - | - | - |
| 1777912290 | 8.89° C | 80% | 1012.5 hPa | - | - | - | - |
| 1777910487 | 8.89° C | 79% | 1012.5 hPa | - | - | - | - |
| 1777909586 | 8.89° C | 78% | 1012.3 hPa | - | - | - | - |
| 1777907783 | 9.44° C | 80% | 1012.1 hPa | - | - | - | - |
| 1777906889 | 9.44° C | 80% | 1011.9 hPa | - | - | - | - |
| 1777905989 | 9.44° C | 78% | 1011.7 hPa | - | - | - | - |
| 1777905089 | 9.44° C | 77% | 1011.6 hPa | - | - | - | - |
| 1777904189 | 9.44° C | 76% | 1011.7 hPa | - | - | - | - |
| 1777903289 | 10° C | 77% | 1011.7 hPa | - | - | - | - |
| 1777902389 | 10° C | 76% | 1011.7 hPa | - | - | - | - |
| 1777901489 | 10° C | 76% | 1011.6 hPa | - | - | - | - |
| 1777900595 | 10.56° C | 72% | 1011.8 hPa | - | - | - | - |
| 1777899695 | 10.56° C | 69% | 1011.6 hPa | - | - | - | - |
| 1777898795 | 11.11° C | 64% | 1011.2 hPa | - | - | - | - |
| 1777896995 | 12.22° C | 56% | 1011.1 hPa | - | - | - | - |
* Rain since midnight (hover to see other rain measurements)
** Current wind speed in m/s (hover to see current wind gust speed)